UAE1 OMDB-HECA

Flight info

Callsign UAE1
Flight time N/A
Altitude 38000
Route SENPA N571 ALPOB L768 ULADA Q143 MEDGO N697 HIL A788 HLF L604 WEJ L677 CVO L617 NOZ L551 ANTAR UN133 KPC/N0480F400 DCT FSK DCT DISOR DCT LONTA UL608 DOLEV DCT BOSNA DCT MARIL DCT OKSIG DCT KUSIB DCT GORPA DCT DOL DCT NIPEL DCT MODSA DCT BABEG DCT LIRSU DCT ARCKY DCT BUB L608 LOGAN
Aircraft A359/H-SDE2E3GHIJ3J4J5LM1ORWXY/LB1D1

Departure

Time N/A
Airport Dubai International Airport (OMDB)

Arrival

Time 2026-05-07 03:03
Airport Cairo International Airport (HECA)
Time Latitude Longitude Altitude Speed Heading
2026-05-07 02:37 29.27241 32.65720 32313 ft 463 kts 282°
2026-05-07 02:37 29.28083 32.62159 31675 ft 462 kts 289°
2026-05-07 02:37 29.29450 32.58841 31033 ft 463 kts 300°
2026-05-07 02:38 29.31291 32.55803 30280 ft 466 kts 306°
2026-05-07 02:38 29.33271 32.52840 29387 ft 469 kts 307°
2026-05-07 02:38 29.35266 32.49897 28751 ft 467 kts 307°
2026-05-07 02:38 29.37251 32.46968 28195 ft 463 kts 307°
2026-05-07 02:39 29.39213 32.44064 27635 ft 459 kts 307°
2026-05-07 02:39 29.41158 32.41182 27055 ft 456 kts 307°
2026-05-07 02:39 29.43093 32.38310 26501 ft 453 kts 307°
2026-05-07 02:39 29.45008 32.35466 25950 ft 450 kts 307°
2026-05-07 02:40 29.46911 32.32636 25383 ft 447 kts 307°
2026-05-07 02:40 29.48807 32.29815 24845 ft 444 kts 307°
2026-05-07 02:40 29.50656 32.27061 24291 ft 441 kts 307°
2026-05-07 02:40 29.52556 32.24229 23751 ft 439 kts 307°
2026-05-07 02:41 29.54385 32.21503 23166 ft 436 kts 307°
2026-05-07 02:41 29.56225 32.18758 22599 ft 432 kts 307°
2026-05-07 02:41 29.58048 32.16035 22017 ft 428 kts 307°
2026-05-07 02:41 29.59871 32.13312 21043 ft 434 kts 307°
2026-05-07 02:42 29.61715 32.10553 20236 ft 435 kts 307°
2026-05-07 02:42 29.63554 32.07803 19585 ft 433 kts 307°
2026-05-07 02:42 29.65102 32.05486 19062 ft 430 kts 307°
2026-05-07 02:42 29.66920 32.02762 18476 ft 426 kts 307°
2026-05-07 02:43 29.68716 32.00069 17801 ft 423 kts 307°
2026-05-07 02:43 29.70488 31.97411 17152 ft 419 kts 307°
2026-05-07 02:43 29.72262 31.94747 16490 ft 416 kts 307°
2026-05-07 02:43 29.74013 31.92117 15858 ft 412 kts 307°
2026-05-07 02:44 29.75745 31.89514 15239 ft 408 kts 307°
2026-05-07 02:44 29.77452 31.86947 14554 ft 396 kts 307°
2026-05-07 02:44 29.78569 31.85266 13810 ft 389 kts 307°
2026-05-07 02:44 29.80198 31.82812 12937 ft 377 kts 307°
2026-05-07 02:45 29.81230 31.81258 12648 ft 363 kts 307°
2026-05-07 02:45 29.82385 31.79515 12321 ft 357 kts 307°
2026-05-07 02:45 29.83893 31.77241 11816 ft 356 kts 307°
2026-05-07 02:45 29.85388 31.74986 11410 ft 349 kts 307°
2026-05-07 02:46 29.86804 31.72848 11295 ft 321 kts 308°
2026-05-07 02:46 29.88101 31.70888 11193 ft 296 kts 308°
2026-05-07 02:46 29.89303 31.69071 11096 ft 273 kts 308°
2026-05-07 02:46 29.90283 31.67291 10888 ft 259 kts 297°
2026-05-07 02:47 29.90945 31.65420 10659 ft 245 kts 292°
2026-05-07 02:47 29.91479 31.63641 10408 ft 234 kts 290°
2026-05-07 02:47 29.91978 31.61866 10167 ft 221 kts 290°
2026-05-07 02:47 29.92423 31.60235 9973 ft 209 kts 290°
2026-05-07 02:48 29.92857 31.58637 9648 ft 208 kts 290°
2026-05-07 02:48 29.93286 31.57056 9335 ft 205 kts 290°
2026-05-07 02:48 29.93703 31.55514 9091 ft 204 kts 290°
2026-05-07 02:48 29.94128 31.53940 8897 ft 201 kts 290°
2026-05-07 02:49 29.94531 31.52441 8774 ft 190 kts 290°
2026-05-07 02:49 29.94907 31.51036 8582 ft 183 kts 290°
2026-05-07 02:49 29.95283 31.49641 8314 ft 182 kts 290°
2026-05-07 02:49 29.95656 31.48255 8042 ft 180 kts 290°
2026-05-07 02:50 29.96026 31.46880 7827 ft 180 kts 291°
2026-05-07 02:50 29.96393 31.45515 7695 ft 175 kts 291°
2026-05-07 02:50 29.96746 31.44194 7546 ft 170 kts 291°
2026-05-07 02:50 29.97094 31.42900 7321 ft 169 kts 291°
2026-05-07 02:51 29.97444 31.41602 7073 ft 169 kts 291°
2026-05-07 02:51 29.97789 31.40315 6878 ft 168 kts 291°
2026-05-07 02:51 29.98133 31.39030 6687 ft 168 kts 291°
2026-05-07 02:51 29.98477 31.37747 6540 ft 168 kts 291°
2026-05-07 02:52 29.98817 31.36477 6355 ft 164 kts 291°
2026-05-07 02:52 29.99151 31.35225 6068 ft 162 kts 291°
2026-05-07 02:52 29.99478 31.34002 5866 ft 157 kts 292°
2026-05-07 02:52 29.99794 31.32815 5684 ft 153 kts 292°
2026-05-07 02:53 30.00109 31.31639 5518 ft 153 kts 292°
2026-05-07 02:53 30.00424 31.30461 5350 ft 154 kts 292°
2026-05-07 02:53 30.00650 31.29618 5236 ft 153 kts 292°
2026-05-07 02:53 30.00868 31.28800 5096 ft 153 kts 292°
2026-05-07 02:54 30.01179 31.27638 4925 ft 152 kts 292°
2026-05-07 02:54 30.01492 31.26465 4732 ft 152 kts 292°
2026-05-07 02:54 30.01802 31.25306 4572 ft 151 kts 293°
2026-05-07 02:54 30.02102 31.24143 4367 ft 153 kts 291°
2026-05-07 02:55 30.02228 31.22862 3877 ft 172 kts 272°
2026-05-07 02:55 30.01874 31.21461 3256 ft 194 kts 244°
2026-05-07 02:55 30.00926 31.20352 2808 ft 194 kts 211°
2026-05-07 02:55 29.99718 31.19900 2696 ft 173 kts 184°
2026-05-07 02:56 29.98585 31.20025 2710 ft 158 kts 160°
2026-05-07 02:56 29.97621 31.20584 2710 ft 154 kts 138°
2026-05-07 02:56 29.96917 31.21485 2713 ft 150 kts 116°
2026-05-07 02:56 29.96547 31.22586 2699 ft 145 kts 96°
2026-05-07 02:57 29.96573 31.23714 2696 ft 139 kts 68°
2026-05-07 02:57 29.97010 31.24689 2705 ft 137 kts 55°
2026-05-07 02:57 29.97559 31.25564 2694 ft 136 kts 51°
2026-05-07 02:57 29.98164 31.26424 2703 ft 136 kts 49°
2026-05-07 02:58 29.98751 31.27246 2705 ft 135 kts 49°
2026-05-07 02:58 29.99365 31.28073 2703 ft 135 kts 47°
2026-05-07 02:58 29.99981 31.28891 2701 ft 135 kts 47°
2026-05-07 02:58 30.00595 31.29716 2702 ft 136 kts 48°
2026-05-07 02:59 30.01212 31.30548 2701 ft 137 kts 48°
2026-05-07 02:59 30.01825 31.31395 2591 ft 137 kts 51°
2026-05-07 02:59 30.02439 31.32235 2427 ft 137 kts 49°
2026-05-07 02:59 30.03057 31.33061 2215 ft 135 kts 47°
2026-05-07 03:00 30.03666 31.33884 1983 ft 134 kts 48°
2026-05-07 03:00 30.04278 31.34694 1742 ft 134 kts 49°
2026-05-07 03:00 30.04893 31.35504 1507 ft 135 kts 48°
2026-05-07 03:00 30.05503 31.36309 1381 ft 135 kts 47°
2026-05-07 03:01 30.06127 31.37129 1316 ft 136 kts 48°
2026-05-07 03:01 30.06756 31.37957 1196 ft 138 kts 48°
2026-05-07 03:01 30.07377 31.38799 1051 ft 138 kts 48°
2026-05-07 03:01 30.08015 31.39629 905 ft 138 kts 47°
2026-05-07 03:02 30.08644 31.40470 735 ft 138 kts 48°
2026-05-07 03:02 30.09281 31.41319 570 ft 140 kts 50°
2026-05-07 03:02 30.09926 31.42175 406 ft 142 kts 48°
2026-05-07 03:02 30.10526 31.42961 381 ft 125 kts 48°
2026-05-07 03:03 30.11001 31.43627 381 ft 92 kts 49°
2026-05-07 03:03 30.11419 31.44026 380 ft 67 kts 21°
2026-05-07 03:03 30.11648 31.44070 380 ft 10 kts 313°
2026-05-07 03:03 30.11650 31.44036 380 ft 2 kts 247°
2026-05-07 03:04 30.11619 31.44007 380 ft 14 kts 220°
2026-05-07 03:04 30.11572 31.43922 380 ft 13 kts 239°
2026-05-07 03:04 30.11516 31.43841 380 ft 12 kts 225°
2026-05-07 03:04 30.11444 31.43751 380 ft 17 kts 227°
2026-05-07 03:05 30.11363 31.43645 380 ft 19 kts 228°
2026-05-07 03:05 30.11265 31.43505 380 ft 26 kts 244°
2026-05-07 03:05 30.11294 31.43375 381 ft 12 kts 317°
2026-05-07 03:05 30.11429 31.43244 380 ft 14 kts 318°
2026-05-07 03:06 30.11833 31.42834 381 ft 0 kts 326°
2026-05-07 03:06 30.11320 31.41232 382 ft 774 kts 229°
2026-05-07 03:06 30.10689 31.40365 381 ft 0 kts 255°
2026-05-07 03:06 30.10688 31.39814 381 ft 0 kts 350°
2026-05-07 03:07 30.10838 31.39783 380 ft 0 kts 78°
2026-05-07 03:07 30.10845 31.39804 380 ft 8 kts 71°
2026-05-07 03:07 30.10853 31.39840 380 ft 0 kts 76°